Time,TemperatureF,DewpointF,PressureIn,WindDirection,WindDirectionDegrees,WindSpeedMPH,WindSpeedGustMPH,Humidity,HourlyPrecipIn,Conditions,Clouds,dailyrainin,SoftwareType,DateUTC
2013-01-19 00:04:00,39.8,32.8,29.86,East,101,0.0,4.0,76,0.00,,,0.00,Wunderground v.1.15,2013-01-19 06:04:00,
2013-01-19 00:09:00,39.6,32.7,29.86,NNW,337,4.0,4.0,76,0.00,,,0.00,Wunderground v.1.15,2013-01-19 06:09:00,
2013-01-19 00:15:00,39.4,33.0,29.86,NNW,335,1.0,-999.0,77,-99.99,,,0.00,weatherlink.com 1.10,2013-01-19 06:15:00,
2013-01-19 00:20:00,39.2,32.6,29.86,NNW,337,1.0,1.0,77,0.00,,,0.00,Wunderground v.1.15,2013-01-19 06:20:00,
2013-01-19 00:25:00,39.2,32.6,29.86,NNW,347,1.0,3.0,77,0.00,,,0.00,Wunderground v.1.15,2013-01-19 06:25:00,
2013-01-19 00:30:00,39.1,33.0,29.86,NNW,336,2.0,-999.0,78,-99.99,,,0.00,weatherlink.com 1.10,2013-01-19 06:30:00,
2013-01-19 00:36:00,39.0,32.7,29.86,North,349,2.0,3.0,78,0.00,,,0.00,Wunderground v.1.15,2013-01-19 06:36:00,
2013-01-19 00:41:00,38.9,32.6,29.86,NNW,343,0.0,1.0,78,0.00,,,0.00,Wunderground v.1.15,2013-01-19 06:41:00,
2013-01-19 00:46:00,38.9,32.6,29.86,NNW,341,0.0,1.0,78,0.00,,,0.00,Wunderground v.1.15,2013-01-19 06:46:00,
2013-01-19 00:51:00,38.8,32.5,29.86,NNW,334,0.0,1.0,78,0.00,,,0.00,Wunderground v.1.15,2013-01-19 06:51:00,
2013-01-19 00:56:00,38.7,32.4,29.86,North,354,0.0,2.0,78,0.00,,,0.00,Wunderground v.1.15,2013-01-19 06:56:00,
2013-01-19 01:02:00,38.6,32.3,29.86,NNW,343,1.0,1.0,78,0.00,,,0.00,Wunderground v.1.15,2013-01-19 07:02:00,
2013-01-19 01:08:00,38.3,32.4,29.86,North,353,1.0,2.0,79,0.00,,,0.00,Wunderground v.1.15,2013-01-19 07:08:00,
2013-01-19 01:14:00,38.2,32.3,29.86,NW,326,0.0,1.0,79,0.00,,,0.00,Wunderground v.1.15,2013-01-19 07:14:00,
2013-01-19 01:19:00,38.0,32.1,29.86,North,355,1.0,1.0,79,0.00,,,0.00,Wunderground v.1.15,2013-01-19 07:19:00,
2013-01-19 01:25:00,37.6,31.7,29.86,NNW,335,0.0,2.0,79,0.00,,,0.00,Wunderground v.1.15,2013-01-19 07:25:00,
2013-01-19 01:31:00,37.4,31.8,29.86,NNW,334,4.0,4.0,80,0.00,,,0.00,Wunderground v.1.15,2013-01-19 07:31:00,
2013-01-19 01:37:00,37.3,32.0,29.87,North,11,0.0,4.0,81,0.00,,,0.00,Wunderground v.1.15,2013-01-19 07:37:00,
2013-01-19 01:42:00,37.2,31.9,29.87,NNW,334,0.0,2.0,81,0.00,,,0.00,Wunderground v.1.15,2013-01-19 07:42:00,
2013-01-19 01:48:00,37.1,31.8,29.86,NNW,345,2.0,2.0,81,0.00,,,0.00,Wunderground v.1.15,2013-01-19 07:48:00,
2013-01-19 01:54:00,37.0,31.7,29.87,NNW,333,1.0,2.0,81,0.00,,,0.00,Wunderground v.1.15,2013-01-19 07:54:00,
2013-01-19 02:00:00,36.8,32.0,29.87,NNW,333,3.0,-999.0,82,-99.99,,,0.00,weatherlink.com 1.10,2013-01-19 08:00:00,
2013-01-19 02:05:00,36.7,31.7,29.87,NNW,340,3.0,4.0,82,0.00,,,0.00,Wunderground v.1.15,2013-01-19 08:05:00,
2013-01-19 02:10:00,36.8,31.8,29.88,NNW,335,3.0,3.0,82,0.00,,,0.00,Wunderground v.1.15,2013-01-19 08:10:00,
2013-01-19 02:15:00,36.7,31.7,29.88,NNW,341,2.0,3.0,82,0.00,,,0.00,Wunderground v.1.15,2013-01-19 08:15:00,
2013-01-19 02:20:00,36.7,31.7,29.88,NNW,341,1.0,1.0,82,0.00,,,0.00,Wunderground v.1.15,2013-01-19 08:20:00,
2013-01-19 02:25:00,36.7,31.7,29.87,NW,325,2.0,4.0,82,0.00,,,0.00,Wunderground v.1.15,2013-01-19 08:25:00,
2013-01-19 02:30:00,36.8,31.8,29.87,North,360,2.0,3.0,82,0.00,,,0.00,Wunderground v.1.15,2013-01-19 08:30:00,
2013-01-19 02:35:00,36.8,31.8,29.87,NNW,337,4.0,4.0,82,0.00,,,0.00,Wunderground v.1.15,2013-01-19 08:35:00,
2013-01-19 02:40:00,36.9,31.9,29.86,NNW,343,3.0,3.0,82,0.00,,,0.00,Wunderground v.1.15,2013-01-19 08:40:00,
2013-01-19 02:45:00,37.0,32.0,29.86,NNW,339,2.0,5.0,82,0.00,,,0.00,Wunderground v.1.15,2013-01-19 08:45:00,
2013-01-19 02:50:00,37.1,32.1,29.86,NNW,345,1.0,3.0,82,0.00,,,0.00,Wunderground v.1.15,2013-01-19 08:50:00,
2013-01-19 02:55:00,37.2,32.2,29.86,NNW,336,2.0,4.0,82,0.00,,,0.00,Wunderground v.1.15,2013-01-19 08:55:00,
2013-01-19 03:00:00,37.2,32.2,29.86,NNW,343,1.0,2.0,82,0.00,,,0.00,Wunderground v.1.15,2013-01-19 09:00:00,
2013-01-19 03:05:00,37.2,32.2,29.86,NNW,332,2.0,4.0,82,0.00,,,0.00,Wunderground v.1.15,2013-01-19 09:05:00,
2013-01-19 03:10:00,37.2,32.2,29.86,North,351,1.0,4.0,82,0.00,,,0.00,Wunderground v.1.15,2013-01-19 09:10:00,
2013-01-19 03:15:00,37.1,32.1,29.85,NNW,336,2.0,4.0,82,0.00,,,0.00,Wunderground v.1.15,2013-01-19 09:15:00,
2013-01-19 03:20:00,37.1,32.1,29.86,NNW,335,2.0,3.0,82,0.00,,,0.00,Wunderground v.1.15,2013-01-19 09:20:00,
2013-01-19 03:25:00,37.1,32.1,29.86,NNW,335,1.0,3.0,82,0.00,,,0.00,Wunderground v.1.15,2013-01-19 09:25:00,
2013-01-19 03:30:00,37.1,32.1,29.85,NNW,334,1.0,3.0,82,0.00,,,0.00,Wunderground v.1.15,2013-01-19 09:30:00,
2013-01-19 03:35:00,37.1,32.1,29.85,NNW,346,0.0,4.0,82,0.00,,,0.00,Wunderground v.1.15,2013-01-19 09:35:00,
2013-01-19 03:40:00,37.1,32.1,29.85,NNW,334,0.0,2.0,82,0.00,,,0.00,Wunderground v.1.15,2013-01-19 09:40:00,
2013-01-19 03:45:00,37.0,32.0,29.85,North,8,1.0,2.0,82,0.00,,,0.00,Wunderground v.1.15,2013-01-19 09:45:00,
2013-01-19 03:50:00,37.0,32.0,29.86,NNW,344,0.0,1.0,82,0.00,,,0.00,Wunderground v.1.15,2013-01-19 09:50:00,
2013-01-19 03:55:00,37.0,32.0,29.86,NNW,343,0.0,2.0,82,0.00,,,0.00,Wunderground v.1.15,2013-01-19 09:55:00,
2013-01-19 04:00:00,36.9,31.9,29.85,NNW,343,0.0,1.0,82,0.00,,,0.00,Wunderground v.1.15,2013-01-19 10:00:00,
2013-01-19 04:05:00,36.9,31.9,29.86,NNW,347,0.0,2.0,82,0.00,,,0.00,Wunderground v.1.15,2013-01-19 10:05:00,
2013-01-19 04:10:00,36.8,32.1,29.86,NNW,347,0.0,0.0,83,0.00,,,0.00,Wunderground v.1.15,2013-01-19 10:10:00,
2013-01-19 04:15:00,36.6,31.9,29.86,NNW,347,1.0,2.0,83,0.00,,,0.00,Wunderground v.1.15,2013-01-19 10:15:00,
2013-01-19 04:20:00,36.6,31.9,29.85,NNW,346,0.0,1.0,83,0.00,,,0.00,Wunderground v.1.15,2013-01-19 10:20:00,
2013-01-19 04:25:00,36.5,31.8,29.85,NNE,20,0.0,2.0,83,0.00,,,0.00,Wunderground v.1.15,2013-01-19 10:25:00,
2013-01-19 04:30:00,36.5,31.8,29.85,NNW,342,0.0,1.0,83,0.00,,,0.00,Wunderground v.1.15,2013-01-19 10:30:00,
2013-01-19 04:35:00,36.5,31.8,29.84,NNW,334,3.0,4.0,83,0.00,,,0.00,Wunderground v.1.15,2013-01-19 10:35:00,
2013-01-19 04:40:00,36.5,31.8,29.84,NNW,334,0.0,1.0,83,0.00,,,0.00,Wunderground v.1.15,2013-01-19 10:40:00,
2013-01-19 04:45:00,36.5,31.8,29.84,NNW,334,0.0,1.0,83,0.00,,,0.00,Wunderground v.1.15,2013-01-19 10:45:00,
2013-01-19 04:50:00,36.4,31.7,29.84,NNW,334,0.0,1.0,83,0.00,,,0.00,Wunderground v.1.15,2013-01-19 10:50:00,
2013-01-19 04:55:00,36.2,31.5,29.84,NNW,334,0.0,1.0,83,0.00,,,0.00,Wunderground v.1.15,2013-01-19 10:55:00,
2013-01-19 05:00:00,36.1,31.7,29.84,NNW,334,0.0,1.0,84,0.00,,,0.00,Wunderground v.1.15,2013-01-19 11:00:00,
2013-01-19 05:05:00,36.0,31.6,29.84,NNW,334,0.0,1.0,84,0.00,,,0.00,Wunderground v.1.15,2013-01-19 11:05:00,
2013-01-19 05:10:00,36.0,31.6,29.84,NNW,334,1.0,1.0,84,0.00,,,0.00,Wunderground v.1.15,2013-01-19 11:10:00,
2013-01-19 06:48:00,35.9,31.8,29.83,NNW,345,0.0,0.0,85,0.00,,,0.00,Wunderground v.1.15,2013-01-19 12:48:00,
2013-01-19 06:49:00,35.9,31.8,29.83,NNW,345,0.0,0.0,85,0.00,,,0.00,Wunderground v.1.15,2013-01-19 12:49:00,
2013-01-19 06:54:00,35.9,31.8,29.83,NNW,345,0.0,0.0,85,0.00,,,0.00,Wunderground v.1.15,2013-01-19 12:54:00,
2013-01-19 06:59:00,35.9,31.8,29.83,NNW,345,0.0,1.0,85,0.00,,,0.00,Wunderground v.1.15,2013-01-19 12:59:00,
2013-01-19 07:04:00,35.9,31.8,29.82,NNW,345,0.0,0.0,85,0.00,,,0.00,Wunderground v.1.15,2013-01-19 13:04:00,
2013-01-19 07:09:00,35.9,31.8,29.82,NNW,345,0.0,1.0,85,0.00,,,0.00,Wunderground v.1.15,2013-01-19 13:09:00,
2013-01-19 07:14:00,35.9,31.8,29.82,NNW,345,0.0,0.0,85,0.00,,,0.00,Wunderground v.1.15,2013-01-19 13:14:00,
2013-01-19 07:19:00,35.9,31.8,29.82,NNW,345,0.0,1.0,85,0.00,,,0.00,Wunderground v.1.15,2013-01-19 13:19:00,
2013-01-19 07:24:00,35.8,31.7,29.82,NNW,345,2.0,2.0,85,0.00,,,0.00,Wunderground v.1.15,2013-01-19 13:24:00,
2013-01-19 07:29:00,35.8,31.7,29.81,NNW,345,0.0,2.0,85,0.00,,,0.00,Wunderground v.1.15,2013-01-19 13:29:00,
2013-01-19 07:34:00,35.9,32.1,29.81,NNW,345,1.0,2.0,86,0.00,,,0.00,Wunderground v.1.15,2013-01-19 13:34:00,
2013-01-19 07:39:00,35.9,31.8,29.82,NNW,344,0.0,2.0,85,0.00,,,0.00,Wunderground v.1.15,2013-01-19 13:39:00,
2013-01-19 07:44:00,35.9,31.8,29.81,NNW,344,0.0,1.0,85,0.00,,,0.00,Wunderground v.1.15,2013-01-19 13:44:00,
2013-01-19 07:49:00,35.9,31.8,29.81,NNW,340,1.0,4.0,85,0.00,,,0.00,Wunderground v.1.15,2013-01-19 13:49:00,
2013-01-19 07:54:00,36.0,31.9,29.81,NNW,340,2.0,3.0,85,0.00,,,0.00,Wunderground v.1.15,2013-01-19 13:54:00,
2013-01-19 08:00:00,36.0,31.9,29.81,NNW,339,1.0,3.0,85,0.00,,,0.00,Wunderground v.1.15,2013-01-19 14:00:00,
2013-01-19 08:05:00,36.1,32.0,29.81,NNW,340,0.0,2.0,85,0.00,,,0.00,Wunderground v.1.15,2013-01-19 14:05:00,
2013-01-19 08:10:00,36.2,32.1,29.81,NNW,336,1.0,4.0,85,0.00,,,0.00,Wunderground v.1.15,2013-01-19 14:10:00,
2013-01-19 08:15:00,36.4,32.3,29.81,NNW,348,1.0,3.0,85,0.00,,,0.00,Wunderground v.1.15,2013-01-19 14:15:00,
2013-01-19 08:20:00,36.4,32.3,29.81,NNW,333,0.0,1.0,85,0.00,,,0.00,Wunderground v.1.15,2013-01-19 14:20:00,
2013-01-19 08:25:00,36.5,32.4,29.80,NNW,339,0.0,2.0,85,0.00,,,0.00,Wunderground v.1.15,2013-01-19 14:25:00,
2013-01-19 08:30:00,36.6,32.5,29.80,North,349,2.0,2.0,85,0.00,,,0.00,Wunderground v.1.15,2013-01-19 14:30:00,
2013-01-19 08:35:00,36.7,32.3,29.81,NNW,344,0.0,4.0,84,0.00,,,0.00,Wunderground v.1.15,2013-01-19 14:35:00,
2013-01-19 08:40:00,36.8,32.4,29.80,North,360,2.0,2.0,84,0.00,,,0.00,Wunderground v.1.15,2013-01-19 14:40:00,
2013-01-19 08:45:00,36.9,32.5,29.80,NNW,340,3.0,5.0,84,0.00,,,0.00,Wunderground v.1.15,2013-01-19 14:45:00,
2013-01-19 08:50:00,37.0,32.6,29.81,NNW,335,3.0,3.0,84,0.00,,,0.00,Wunderground v.1.15,2013-01-19 14:50:00,
2013-01-19 08:55:00,37.1,32.7,29.81,NNW,335,3.0,6.0,84,0.00,,,0.00,Wunderground v.1.15,2013-01-19 14:55:00,
2013-01-19 09:00:00,37.2,32.8,29.81,WNW,295,2.0,2.0,84,0.00,,,0.00,Wunderground v.1.15,2013-01-19 15:00:00,
2013-01-19 09:05:00,37.3,32.6,29.80,NNW,343,2.0,4.0,83,0.00,,,0.00,Wunderground v.1.15,2013-01-19 15:05:00,
2013-01-19 09:10:00,37.4,32.7,29.79,NW,325,4.0,4.0,83,0.00,,,0.00,Wunderground v.1.15,2013-01-19 15:10:00,
2013-01-19 09:15:00,37.5,32.8,29.80,NNW,342,4.0,6.0,83,0.00,,,0.00,Wunderground v.1.15,2013-01-19 15:15:00,
2013-01-19 09:20:00,37.5,32.8,29.79,NNW,348,2.0,2.0,83,0.00,,,0.00,Wunderground v.1.15,2013-01-19 15:20:00,
2013-01-19 09:25:00,37.6,32.9,29.78,NNE,16,3.0,5.0,83,0.00,,,0.00,Wunderground v.1.15,2013-01-19 15:25:00,
2013-01-19 09:30:00,37.6,32.9,29.78,NW,318,0.0,1.0,83,0.00,,,0.00,Wunderground v.1.15,2013-01-19 15:30:00,
2013-01-19 09:35:00,37.7,33.0,29.78,NNW,343,1.0,5.0,83,0.00,,,0.00,Wunderground v.1.15,2013-01-19 15:35:00,
2013-01-19 09:40:00,37.8,32.8,29.77,NNW,343,3.0,3.0,82,0.00,,,0.00,Wunderground v.1.15,2013-01-19 15:40:00,
2013-01-19 09:45:00,37.9,32.9,29.78,NNW,336,2.0,4.0,82,0.00,,,0.00,Wunderground v.1.15,2013-01-19 15:45:00,
2013-01-19 09:51:00,38.0,33.0,29.77,North,351,4.0,5.0,82,0.00,,,0.00,Wunderground v.1.15,2013-01-19 15:51:00,
2013-01-19 09:56:00,38.1,33.1,29.78,NNW,328,4.0,6.0,82,0.00,,,0.00,Wunderground v.1.15,2013-01-19 15:56:00,
2013-01-19 10:01:00,38.2,33.2,29.80,NNW,334,1.0,5.0,82,0.00,,,0.00,Wunderground v.1.15,2013-01-19 16:01:00,
2013-01-19 10:06:00,38.2,33.2,29.79,NW,326,2.0,5.0,82,0.00,,,0.00,Wunderground v.1.15,2013-01-19 16:06:00,
2013-01-19 10:11:00,38.3,33.3,29.78,NW,320,1.0,5.0,82,0.00,,,0.00,Wunderground v.1.15,2013-01-19 16:11:00,
2013-01-19 10:16:00,38.6,33.3,29.78,NNW,332,3.0,6.0,81,0.00,,,0.00,Wunderground v.1.15,2013-01-19 16:16:00,
2013-01-19 10:21:00,38.8,33.2,29.77,NNW,332,2.0,5.0,80,0.00,,,0.00,Wunderground v.1.15,2013-01-19 16:21:00,
2013-01-19 10:26:00,38.9,33.3,29.76,North,357,2.0,5.0,80,0.00,,,0.00,Wunderground v.1.15,2013-01-19 16:26:00,
2013-01-19 10:31:00,39.0,33.4,29.76,NNW,344,3.0,3.0,80,0.00,,,0.00,Wunderground v.1.15,2013-01-19 16:31:00,
2013-01-19 10:36:00,39.0,33.4,29.75,NNW,340,1.0,4.0,80,0.00,,,0.00,Wunderground v.1.15,2013-01-19 16:36:00,
2013-01-19 10:41:00,39.0,33.4,29.76,North,349,1.0,6.0,80,0.00,,,0.00,Wunderground v.1.15,2013-01-19 16:41:00,
2013-01-19 10:46:00,39.0,33.4,29.77,ESE,104,0.0,6.0,80,0.00,,,0.00,Wunderground v.1.15,2013-01-19 16:46:00,
2013-01-19 10:51:00,39.2,33.5,29.76,NNW,341,3.0,4.0,80,0.00,,,0.00,Wunderground v.1.15,2013-01-19 16:51:00,
2013-01-19 10:56:00,39.5,33.5,29.76,ENE,77,7.0,10.0,79,0.00,,,0.00,Wunderground v.1.15,2013-01-19 16:56:00,
2013-01-19 11:02:00,39.8,33.5,29.76,West,262,5.0,5.0,78,0.00,,,0.00,Wunderground v.1.15,2013-01-19 17:02:00,
2013-01-19 11:07:00,40.0,33.7,29.75,NNW,333,3.0,10.0,78,0.00,,,0.00,Wunderground v.1.15,2013-01-19 17:07:00,
2013-01-19 11:12:00,40.0,33.4,29.75,NNW,344,4.0,5.0,77,0.00,,,0.00,Wunderground v.1.15,2013-01-19 17:12:00,
2013-01-19 11:20:00,40.0,33.4,29.74,WNW,300,2.0,10.0,77,0.00,,,0.00,Wunderground v.1.15,2013-01-19 17:20:00,
2013-01-19 11:25:00,40.0,33.7,29.74,NNE,14,6.0,7.0,78,0.00,,,0.00,Wunderground v.1.15,2013-01-19 17:25:00,
2013-01-19 11:30:00,40.1,33.5,29.73,NNW,339,0.0,7.0,77,0.00,,,0.00,Wunderground v.1.15,2013-01-19 17:30:00,
2013-01-19 11:35:00,40.4,33.8,29.73,North,4,3.0,7.0,77,0.00,,,0.00,Wunderground v.1.15,2013-01-19 17:35:00,
2013-01-19 11:40:00,40.6,34.0,29.72,NW,324,4.0,4.0,77,0.00,,,0.00,Wunderground v.1.15,2013-01-19 17:40:00,
2013-01-19 11:45:00,40.8,33.8,29.72,NNW,331,10.0,10.0,76,0.00,,,0.00,Wunderground v.1.15,2013-01-19 17:45:00,
2013-01-19 11:50:00,41.0,34.0,29.71,NW,313,6.0,6.0,76,0.00,,,0.00,Wunderground v.1.15,2013-01-19 17:50:00,
2013-01-19 11:55:00,41.1,34.1,29.71,NNW,343,4.0,9.0,76,0.00,,,0.00,Wunderground v.1.15,2013-01-19 17:55:00,
2013-01-19 12:00:00,41.3,34.0,29.71,NNW,332,6.0,6.0,75,0.00,,,0.00,Wunderground v.1.15,2013-01-19 18:00:00,
2013-01-19 12:07:00,41.6,34.3,29.71,NNW,342,3.0,6.0,75,0.00,,,0.00,Wunderground v.1.15,2013-01-19 18:07:00,
2013-01-19 12:12:00,41.7,34.0,29.71,NNW,346,5.0,6.0,74,0.00,,,0.00,Wunderground v.1.15,2013-01-19 18:12:00,
2013-01-19 12:17:00,41.8,34.1,29.71,NNW,336,6.0,6.0,74,0.00,,,0.00,Wunderground v.1.15,2013-01-19 18:17:00,
2013-01-19 12:22:00,41.9,34.2,29.70,North,358,3.0,6.0,74,0.00,,,0.00,Wunderground v.1.15,2013-01-19 18:22:00,
2013-01-19 12:27:00,42.0,34.3,29.70,NNW,334,6.0,6.0,74,0.00,,,0.00,Wunderground v.1.15,2013-01-19 18:27:00,
2013-01-19 12:33:00,42.1,34.1,29.70,North,353,5.0,6.0,73,0.00,,,0.00,Wunderground v.1.15,2013-01-19 18:33:00,
2013-01-19 12:38:00,42.3,34.3,29.69,NW,326,2.0,9.0,73,0.00,,,0.00,Wunderground v.1.15,2013-01-19 18:38:00,
2013-01-19 12:43:00,42.5,34.1,29.69,North,349,3.0,8.0,72,0.00,,,0.00,Wunderground v.1.15,2013-01-19 18:43:00,
2013-01-19 12:48:00,42.6,34.2,29.69,North,349,3.0,9.0,72,0.00,,,0.00,Wunderground v.1.15,2013-01-19 18:48:00,
2013-01-19 12:54:00,42.8,34.4,29.70,NNW,330,4.0,7.0,72,0.00,,,0.00,Wunderground v.1.15,2013-01-19 18:54:00,
2013-01-19 12:59:00,43.1,34.3,29.70,NNW,338,2.0,7.0,71,0.00,,,0.00,Wunderground v.1.15,2013-01-19 18:59:00,
2013-01-19 13:04:00,43.4,34.3,29.69,ESE,112,3.0,4.0,70,0.00,,,0.00,Wunderground v.1.15,2013-01-19 19:04:00,
2013-01-19 13:09:00,43.5,34.4,29.69,ESE,103,2.0,7.0,70,0.00,,,0.00,Wunderground v.1.15,2013-01-19 19:09:00,
2013-01-19 13:14:00,43.6,34.1,29.70,NW,315,4.0,6.0,69,0.00,,,0.00,Wunderground v.1.15,2013-01-19 19:14:00,
2013-01-19 13:20:00,43.8,34.3,29.69,North,357,1.0,3.0,69,0.00,,,0.00,Wunderground v.1.15,2013-01-19 19:20:00,
2013-01-19 13:25:00,44.2,34.7,29.69,East,101,2.0,9.0,69,0.00,,,0.00,Wunderground v.1.15,2013-01-19 19:25:00,
2013-01-19 13:31:00,44.5,34.6,29.69,North,4,1.0,3.0,68,0.00,,,0.00,Wunderground v.1.15,2013-01-19 19:31:00,
2013-01-19 13:37:00,44.9,34.6,29.68,NNW,328,5.0,5.0,67,0.00,,,0.00,Wunderground v.1.15,2013-01-19 19:37:00,
2013-01-19 13:42:00,45.2,34.9,29.68,NW,315,2.0,5.0,67,0.00,,,0.00,Wunderground v.1.15,2013-01-19 19:42:00,
2013-01-19 13:47:00,45.4,34.7,29.68,NNW,348,2.0,7.0,66,0.00,,,0.00,Wunderground v.1.15,2013-01-19 19:47:00,
2013-01-19 13:53:00,45.5,34.8,29.67,NW,307,2.0,4.0,66,0.00,,,0.00,Wunderground v.1.15,2013-01-19 19:53:00,
2013-01-19 13:59:00,45.7,35.0,29.67,North,352,5.0,7.0,66,0.00,,,0.00,Wunderground v.1.15,2013-01-19 19:59:00,
2013-01-19 14:04:00,46.1,35.0,29.67,NNW,340,4.0,6.0,65,0.00,,,0.00,Wunderground v.1.15,2013-01-19 20:04:00,
2013-01-19 14:09:00,46.5,35.0,29.67,North,359,4.0,9.0,64,0.00,,,0.00,Wunderground v.1.15,2013-01-19 20:09:00,
2013-01-19 14:15:00,46.8,35.3,29.66,NW,315,3.0,10.0,64,0.00,,,0.00,Wunderground v.1.15,2013-01-19 20:15:00,
2013-01-19 14:20:00,46.6,34.7,29.66,NNW,343,4.0,4.0,63,0.00,,,0.00,Wunderground v.1.15,2013-01-19 20:20:00,
2013-01-19 14:26:00,46.2,34.7,29.67,NNW,343,5.0,6.0,64,0.00,,,0.00,Wunderground v.1.15,2013-01-19 20:26:00,
2013-01-19 14:31:00,45.8,34.7,29.67,NNW,340,3.0,5.0,65,0.00,,,0.00,Wunderground v.1.15,2013-01-19 20:31:00,
2013-01-19 14:36:00,45.5,34.4,29.66,NNW,339,2.0,5.0,65,0.00,,,0.00,Wunderground v.1.15,2013-01-19 20:36:00,
2013-01-19 14:41:00,45.4,34.7,29.67,NNW,342,5.0,5.0,66,0.00,,,0.00,Wunderground v.1.15,2013-01-19 20:41:00,
2013-01-19 14:46:00,45.3,34.6,29.68,North,351,3.0,7.0,66,0.00,,,0.00,Wunderground v.1.15,2013-01-19 20:46:00,
2013-01-19 14:52:00,45.3,34.6,29.69,ENE,65,3.0,5.0,66,0.00,,,0.00,Wunderground v.1.15,2013-01-19 20:52:00,
2013-01-19 14:58:00,45.1,34.4,29.68,ESE,122,5.0,10.0,66,0.00,,,0.00,Wunderground v.1.15,2013-01-19 20:58:00,
2013-01-19 15:03:00,45.2,34.5,29.69,WSW,237,7.0,7.0,66,0.00,,,0.00,Wunderground v.1.15,2013-01-19 21:03:00,
2013-01-19 15:08:00,45.4,34.3,29.69,East,99,1.0,7.0,65,0.00,,,0.00,Wunderground v.1.15,2013-01-19 21:08:00,
2013-01-19 15:14:00,45.4,34.3,29.69,ESE,119,4.0,5.0,65,0.00,,,0.00,Wunderground v.1.15,2013-01-19 21:14:00,
2013-01-19 15:20:00,45.4,34.3,29.69,NNW,343,3.0,4.0,65,0.00,,,0.00,Wunderground v.1.15,2013-01-19 21:20:00,
2013-01-19 15:25:00,45.3,34.2,29.68,NNW,333,4.0,11.0,65,0.00,,,0.00,Wunderground v.1.15,2013-01-19 21:25:00,
2013-01-19 15:30:00,45.4,34.3,29.68,NNW,330,5.0,5.0,65,0.00,,,0.00,Wunderground v.1.15,2013-01-19 21:30:00,
2013-01-19 15:35:00,45.5,34.4,29.68,ENE,74,2.0,10.0,65,0.00,,,0.00,Wunderground v.1.15,2013-01-19 21:35:00,
2013-01-19 15:40:00,45.6,34.9,29.68,SE,133,3.0,4.0,66,0.00,,,0.00,Wunderground v.1.15,2013-01-19 21:40:00,
2013-01-19 15:46:00,45.7,34.6,29.69,North,6,1.0,4.0,65,0.00,,,0.00,Wunderground v.1.15,2013-01-19 21:46:00,
2013-01-19 15:51:00,45.5,34.4,29.69,North,349,11.0,11.0,65,0.00,,,0.00,Wunderground v.1.15,2013-01-19 21:51:00,
2013-01-19 15:56:00,45.3,34.2,29.69,North,354,2.0,11.0,65,0.00,,,0.00,Wunderground v.1.15,2013-01-19 21:56:00,
2013-01-19 16:01:00,45.0,34.3,29.69,NW,321,2.0,5.0,66,0.00,,,0.00,Wunderground v.1.15,2013-01-19 22:01:00,
2013-01-19 16:08:00,44.8,34.5,29.69,North,351,2.0,7.0,67,0.00,,,0.00,Wunderground v.1.15,2013-01-19 22:08:00,
2013-01-19 16:13:00,44.6,34.3,29.69,NNW,343,2.0,5.0,67,0.00,,,0.00,Wunderground v.1.15,2013-01-19 22:13:00,
2013-01-19 16:18:00,44.4,34.1,29.69,East,93,4.0,5.0,67,0.00,,,0.00,Wunderground v.1.15,2013-01-19 22:18:00,
2013-01-19 16:23:00,44.3,34.0,29.69,South,174,4.0,9.0,67,0.00,,,0.00,Wunderground v.1.15,2013-01-19 22:23:00,
2013-01-19 16:28:00,44.4,34.1,29.69,NNW,343,1.0,9.0,67,0.00,,,0.00,Wunderground v.1.15,2013-01-19 22:28:00,
2013-01-19 16:33:00,44.4,34.1,29.69,ESE,120,6.0,6.0,67,0.00,,,0.00,Wunderground v.1.15,2013-01-19 22:33:00,
2013-01-19 16:38:00,44.3,34.0,29.69,NNW,339,5.0,6.0,67,0.00,,,0.00,Wunderground v.1.15,2013-01-19 22:38:00,
2013-01-19 16:43:00,44.1,34.2,29.70,SSE,166,3.0,8.0,68,0.00,,,0.00,Wunderground v.1.15,2013-01-19 22:43:00,
2013-01-19 16:48:00,44.0,34.1,29.69,SSW,213,3.0,8.0,68,0.00,,,0.00,Wunderground v.1.15,2013-01-19 22:48:00,
2013-01-19 16:53:00,43.8,34.3,29.69,North,2,0.0,4.0,69,0.00,,,0.00,Wunderground v.1.15,2013-01-19 22:53:00,
2013-01-19 16:59:00,43.6,34.1,29.69,ESE,120,7.0,7.0,69,0.00,,,0.00,Wunderground v.1.15,2013-01-19 22:59:00,
2013-01-19 17:04:00,43.6,34.1,29.69,SE,140,2.0,4.0,69,0.00,,,0.00,Wunderground v.1.15,2013-01-19 23:04:00,
2013-01-19 17:10:00,43.6,33.7,29.69,NNW,330,2.0,3.0,68,0.00,,,0.00,Wunderground v.1.15,2013-01-19 23:10:00,
2013-01-19 17:15:00,43.4,33.5,29.70,SE,129,3.0,5.0,68,0.00,,,0.00,Wunderground v.1.15,2013-01-19 23:15:00,
2013-01-19 17:20:00,43.2,33.3,29.70,SE,130,2.0,6.0,68,0.00,,,0.00,Wunderground v.1.15,2013-01-19 23:20:00,
2013-01-19 17:25:00,43.2,33.3,29.70,ESE,117,1.0,6.0,68,0.00,,,0.00,Wunderground v.1.15,2013-01-19 23:25:00,
2013-01-19 17:30:00,43.0,32.4,29.69,SE,124,4.0,4.0,66,0.00,,,0.00,Wunderground v.1.15,2013-01-19 23:30:00,
2013-01-19 17:35:00,43.2,31.8,29.70,ESE,104,2.0,7.0,64,0.00,,,0.00,Wunderground v.1.15,2013-01-19 23:35:00,
2013-01-19 17:41:00,43.0,31.6,29.70,East,89,5.0,5.0,64,0.00,,,0.00,Wunderground v.1.15,2013-01-19 23:41:00,
2013-01-19 17:46:00,42.6,31.7,29.71,ESE,103,3.0,5.0,65,0.00,,,0.00,Wunderground v.1.15,2013-01-19 23:46:00,
2013-01-19 17:52:00,42.4,31.8,29.71,SE,131,3.0,4.0,66,0.00,,,0.00,Wunderground v.1.15,2013-01-19 23:52:00,
2013-01-19 17:57:00,42.5,31.6,29.71,ESE,103,1.0,6.0,65,0.00,,,0.00,Wunderground v.1.15,2013-01-19 23:57:00,
2013-01-19 18:02:00,42.4,31.8,29.71,ESE,112,2.0,5.0,66,0.00,,,0.00,Wunderground v.1.15,2013-01-20 00:02:00,
2013-01-19 18:07:00,42.3,31.7,29.71,SW,234,3.0,9.0,66,0.00,,,0.00,Wunderground v.1.15,2013-01-20 00:07:00,
2013-01-19 18:12:00,42.1,31.6,29.71,SE,125,3.0,6.0,66,0.00,,,0.00,Wunderground v.1.15,2013-01-20 00:12:00,
2013-01-19 18:17:00,42.0,31.5,29.72,East,95,4.0,9.0,66,0.00,,,0.00,Wunderground v.1.15,2013-01-20 00:17:00,
2013-01-19 18:23:00,41.9,31.4,29.72,East,98,4.0,6.0,66,0.00,,,0.00,Wunderground v.1.15,2013-01-20 00:23:00,
2013-01-19 18:28:00,41.7,30.4,29.72,North,11,4.0,11.0,64,0.00,,,0.00,Wunderground v.1.15,2013-01-20 00:28:00,
2013-01-19 18:33:00,41.7,30.0,29.72,East,101,1.0,9.0,63,0.00,,,0.00,Wunderground v.1.15,2013-01-20 00:33:00,
2013-01-19 18:38:00,41.5,30.2,29.72,SE,126,4.0,9.0,64,0.00,,,0.00,Wunderground v.1.15,2013-01-20 00:38:00,
2013-01-19 18:43:00,41.3,29.6,29.73,ESE,114,7.0,11.0,63,0.00,,,0.00,Wunderground v.1.15,2013-01-20 00:43:00,
2013-01-19 18:48:00,41.2,29.5,29.73,SSE,149,11.0,13.0,63,0.00,,,0.00,Wunderground v.1.15,2013-01-20 00:48:00,
2013-01-19 18:53:00,41.1,29.1,29.73,South,181,5.0,12.0,62,0.00,,,0.00,Wunderground v.1.15,2013-01-20 00:53:00,
2013-01-19 18:58:00,40.8,28.4,29.73,SW,235,10.0,20.0,61,0.00,,,0.00,Wunderground v.1.15,2013-01-20 00:58:00,
2013-01-19 19:03:00,40.6,27.0,29.73,ESE,120,4.0,11.0,58,0.00,,,0.00,Wunderground v.1.15,2013-01-20 01:03:00,
2013-01-19 19:08:00,40.3,26.7,29.73,ESE,121,6.0,12.0,58,0.00,,,0.00,Wunderground v.1.15,2013-01-20 01:08:00,
2013-01-19 19:14:00,40.0,27.2,29.72,East,80,1.0,9.0,60,0.00,,,0.00,Wunderground v.1.15,2013-01-20 01:14:00,
2013-01-19 19:19:00,39.7,25.3,29.72,South,172,11.0,13.0,56,0.00,,,0.00,Wunderground v.1.15,2013-01-20 01:19:00,
2013-01-19 19:24:00,39.5,23.8,29.72,South,175,4.0,10.0,53,0.00,,,0.00,Wunderground v.1.15,2013-01-20 01:24:00,
2013-01-19 19:29:00,39.2,22.6,29.72,East,84,11.0,13.0,51,0.00,,,0.00,Wunderground v.1.15,2013-01-20 01:29:00,
2013-01-19 19:34:00,38.9,20.4,29.73,ESE,118,13.0,14.0,47,0.00,,,0.00,Wunderground v.1.15,2013-01-20 01:34:00,
2013-01-19 19:39:00,38.4,19.9,29.72,ESE,121,5.0,16.0,47,0.00,,,0.00,Wunderground v.1.15,2013-01-20 01:39:00,
2013-01-19 19:45:00,37.8,20.3,29.73,SE,128,9.0,17.0,49,0.00,,,0.00,Wunderground v.1.15,2013-01-20 01:45:00,
2013-01-19 19:50:00,37.2,19.8,29.73,SE,130,4.0,7.0,49,0.00,,,0.00,Wunderground v.1.15,2013-01-20 01:50:00,
2013-01-19 19:55:00,36.8,19.9,29.73,ESE,105,6.0,12.0,50,0.00,,,0.00,Wunderground v.1.15,2013-01-20 01:55:00,
2013-01-19 20:00:00,36.3,17.5,29.74,NNW,345,6.0,12.0,46,0.00,,,0.00,Wunderground v.1.15,2013-01-20 02:00:00,
2013-01-19 20:05:00,35.7,16.9,29.74,West,268,7.0,14.0,46,0.00,,,0.00,Wunderground v.1.15,2013-01-20 02:05:00,
2013-01-19 20:11:00,35.2,15.4,29.75,ESE,104,5.0,12.0,44,0.00,,,0.00,Wunderground v.1.15,2013-01-20 02:11:00,
2013-01-19 20:16:00,34.1,14.9,29.76,SSE,149,8.0,14.0,45,0.00,,,0.00,Wunderground v.1.15,2013-01-20 02:16:00,
2013-01-19 20:21:00,33.3,16.2,29.76,ESE,118,7.0,10.0,49,0.00,,,0.00,Wunderground v.1.15,2013-01-20 02:21:00,
2013-01-19 20:26:00,32.3,16.2,29.78,ESE,115,12.0,16.0,51,0.00,,,0.00,Wunderground v.1.15,2013-01-20 02:26:00,
2013-01-19 20:32:00,31.5,16.3,29.79,ESE,109,10.0,12.0,53,0.00,,,0.00,Wunderground v.1.15,2013-01-20 02:32:00,
2013-01-19 20:37:00,30.2,12.8,29.80,East,84,13.0,14.0,48,0.00,,,0.00,Wunderground v.1.15,2013-01-20 02:37:00,
2013-01-19 20:42:00,28.7,10.5,29.80,SE,127,10.0,16.0,46,0.00,,,0.00,Wunderground v.1.15,2013-01-20 02:42:00,
2013-01-19 20:47:00,27.6,10.0,29.81,East,80,12.0,16.0,47,0.00,,,0.00,Wunderground v.1.15,2013-01-20 02:47:00,
2013-01-19 20:53:00,26.7,9.1,29.82,East,84,7.0,14.0,47,0.00,,,0.00,Wunderground v.1.15,2013-01-20 02:53:00,
2013-01-19 20:58:00,26.0,8.0,29.82,South,189,5.0,15.0,46,0.00,,,0.00,Wunderground v.1.15,2013-01-20 02:58:00,
2013-01-19 21:03:00,25.4,8.4,29.83,ESE,120,7.0,14.0,48,0.00,,,0.00,Wunderground v.1.15,2013-01-20 03:03:00,
2013-01-19 21:08:00,24.9,9.3,29.83,SSE,156,11.0,16.0,51,0.00,,,0.00,Wunderground v.1.15,2013-01-20 03:08:00,
2013-01-19 21:13:00,24.5,9.4,29.84,ESE,111,5.0,9.0,52,0.00,,,0.00,Wunderground v.1.15,2013-01-20 03:13:00,
2013-01-19 21:18:00,24.2,9.5,29.85,SE,135,6.0,14.0,53,0.00,,,0.00,Wunderground v.1.15,2013-01-20 03:18:00,
2013-01-19 21:24:00,24.0,9.3,29.85,ESE,112,12.0,14.0,53,0.00,,,0.00,Wunderground v.1.15,2013-01-20 03:24:00,
2013-01-19 21:29:00,23.8,10.0,29.86,ESE,122,11.0,14.0,55,0.00,,,0.00,Wunderground v.1.15,2013-01-20 03:29:00,
2013-01-19 21:34:00,23.4,9.6,29.87,SE,125,11.0,11.0,55,0.00,,,0.00,Wunderground v.1.15,2013-01-20 03:34:00,
2013-01-19 21:39:00,22.8,9.4,29.87,ESE,110,8.0,15.0,56,0.00,,,0.00,Wunderground v.1.15,2013-01-20 03:39:00,
2013-01-19 21:44:00,22.4,9.4,29.88,North,350,6.0,10.0,57,0.00,,,0.00,Wunderground v.1.15,2013-01-20 03:44:00,
2013-01-19 21:49:00,21.9,8.6,29.89,ESE,113,9.0,16.0,56,0.00,,,0.00,Wunderground v.1.15,2013-01-20 03:49:00,
2013-01-19 21:54:00,21.4,8.9,29.89,ESE,115,6.0,14.0,58,0.00,,,0.00,Wunderground v.1.15,2013-01-20 03:54:00,
2013-01-19 22:00:00,21.2,9.1,29.90,ESE,115,4.0,16.0,59,0.00,,,0.00,Wunderground v.1.15,2013-01-20 04:00:00,
2013-01-19 22:05:00,20.9,8.8,29.90,ENE,75,3.0,15.0,59,0.00,,,0.00,Wunderground v.1.15,2013-01-20 04:05:00,
2013-01-19 22:10:00,20.6,8.1,29.90,SSW,203,3.0,6.0,58,0.00,,,0.00,Wunderground v.1.15,2013-01-20 04:10:00,
2013-01-19 22:15:00,20.3,8.2,29.91,East,86,6.0,11.0,59,0.00,,,0.00,Wunderground v.1.15,2013-01-20 04:15:00,
2013-01-19 22:20:00,20.1,8.4,29.91,SE,136,3.0,6.0,60,0.00,,,0.00,Wunderground v.1.15,2013-01-20 04:20:00,
2013-01-19 22:25:00,19.9,7.5,29.91,ESE,110,4.0,10.0,58,0.00,,,0.00,Wunderground v.1.15,2013-01-20 04:25:00,
2013-01-19 22:30:00,19.8,7.8,29.92,ESE,102,4.0,9.0,59,0.00,,,0.00,Wunderground v.1.15,2013-01-20 04:30:00,
2013-01-19 22:35:00,19.7,7.7,29.92,SE,135,4.0,10.0,59,0.00,,,0.00,Wunderground v.1.15,2013-01-20 04:35:00,
2013-01-19 22:40:00,19.5,7.5,29.92,SSW,199,1.0,11.0,59,0.00,,,0.00,Wunderground v.1.15,2013-01-20 04:40:00,
2013-01-19 22:45:00,19.3,7.3,29.93,SSE,166,4.0,11.0,59,0.00,,,0.00,Wunderground v.1.15,2013-01-20 04:45:00,
2013-01-19 22:50:00,19.1,6.7,29.94,South,183,4.0,8.0,58,0.00,,,0.00,Wunderground v.1.15,2013-01-20 04:50:00,
2013-01-19 22:55:00,18.9,6.5,29.94,ENE,77,8.0,13.0,58,0.00,,,0.00,Wunderground v.1.15,2013-01-20 04:55:00,
2013-01-19 23:01:00,18.7,6.7,29.94,SW,222,3.0,5.0,59,0.00,,,0.00,Wunderground v.1.15,2013-01-20 05:01:00,
2013-01-19 23:02:00,18.7,6.7,29.94,SE,125,2.0,6.0,59,0.00,,,0.00,Wunderground v.1.15,2013-01-20 05:02:00,
2013-01-19 23:03:00,18.6,6.6,29.94,SE,133,5.0,8.0,59,0.00,,,0.00,Wunderground v.1.15,2013-01-20 05:03:00,
2013-01-19 23:08:00,18.5,6.9,29.95,ESE,116,9.0,11.0,60,0.00,,,0.00,Wunderground v.1.15,2013-01-20 05:08:00,
2013-01-19 23:13:00,18.2,6.6,29.95,SE,140,6.0,12.0,60,0.00,,,0.00,Wunderground v.1.15,2013-01-20 05:13:00,
2013-01-19 23:18:00,18.0,6.8,29.96,ESE,110,3.0,13.0,61,0.00,,,0.00,Wunderground v.1.15,2013-01-20 05:18:00,
2013-01-19 23:23:00,17.9,6.7,29.96,ESE,113,3.0,10.0,61,0.00,,,0.00,Wunderground v.1.15,2013-01-20 05:23:00,
2013-01-19 23:28:00,17.7,6.5,29.97,South,183,3.0,11.0,61,0.00,,,0.00,Wunderground v.1.15,2013-01-20 05:28:00,
2013-01-19 23:33:00,17.6,6.8,29.97,ESE,116,2.0,13.0,62,0.00,,,0.00,Wunderground v.1.15,2013-01-20 05:33:00,
2013-01-19 23:38:00,17.5,7.4,29.97,ESE,115,5.0,13.0,64,0.00,,,0.00,Wunderground v.1.15,2013-01-20 05:38:00,
2013-01-19 23:43:00,17.3,7.5,29.98,East,85,9.0,11.0,65,0.00,,,0.00,Wunderground v.1.15,2013-01-20 05:43:00,
2013-01-19 23:48:00,17.0,6.9,29.98,East,95,2.0,11.0,64,0.00,,,0.00,Wunderground v.1.15,2013-01-20 05:48:00,
2013-01-19 23:53:00,16.8,7.1,29.99,ESE,110,5.0,11.0,65,0.00,,,0.00,Wunderground v.1.15,2013-01-20 05:53:00,
2013-01-19 23:58:00,16.8,7.4,30.00,ESE,106,5.0,11.0,66,0.00,,,0.00,Wunderground v.1.15,2013-01-20 05:58:00,